CZ-3B DEB, 48542

Orbit data source: Space-Track

CZ-3B DEB, 48542 is space debris in HEO originally from a launch on Sat, 04 Sep 2010 UTC launched from the Xichang Space Center, China (XSC). Debris objects in space refer to the collection of defunct objects orbiting the Earth. Examples of debris include non-operational satellites, rocket bodies, and fragments generated from explosions, collisions, or faulty payload assembly.

Loading next visibility...
CZ-3B DEB details
Identifier
48542, 2010-042AH
Orbit
HEO
Last TLE update2 days ago
Origin
Flag of CNCASC (CN / PRC)
ManufacturerCALT
MissionSpacecraft
Bus & MotorUnknown
MassUnknown
Launch date (UTC)
2010-09-04 (14 years ago)
Launch vehicleUnknown
Launch site
Xichang Space Center, China (XSC)
Object type
Payload
Rocket body
Debris
Shape & HBRUnknown
Radar Cross SectionMedium (>0.1 m² and <1 m²)

Expand to show TLE details & history

TLE from 2 days ago
0 CZ-3B DEB
1 48542U 10042AH  24359.28618903  .00002921  00000-0  14323-1 0  9998
2 48542  22.5526  19.1754 7372180 210.3356  70.6769  2.07157686  5026
Epoch: 2024-12-24T06:52Z
Definitive object data (Epoch: 2024-12-24T06:52:06.732Z)
Latitude-0.00014°
Longitude-177.13138°
Altitude26,213.576 km
Speed3.021 km/s
True Right ascension01h 16m 46s
True Declination0° 00' 01"
Sunlit
Object was in daylight at TLE epoch
Visualization TLE readout
Latitude21.53065°
Longitude-69.06791°
Altitude8,119.395 km
Speed6.298 km/s
Apparent Right ascension07h 03m 58s
Apparent Declination5° 29' 60"
Sunlit
Object is in daylight
Visualization observer readout
Local Sidereal Time13:16:00
Azimuth276.146° WNW
Elevation1.227°
Doppler factor1
Orbital elements
Apogee altitude38,786.022 km
Perigee altitude453.664 km
Semi-major axis25,997.98 km
Eccentricity0.737218
Inclination22.5526°
RAAN19.1754°
Arg. of periapsis210.3356°
True anomaly149.69059°
Mean anomaly70.6769°
Eccentric anomaly110.2943°
Mean motion0.51777 °/min
BSTAR0.014323
Orbital period695.29 mins
Loading maneuver chart data...
Loading historical data...
Loading historical data...
Loading historical data...
Loading historical data...
Loading historical data...
Loading historical data...
Loading historical data...

CZ-3B DEB Visibility forecast

Observer location: undefined°, undefined

Span
Click to sort rows by Start time (UTC) header in descending order
Start Az.
Max El. time (UTC)
Max El. Az.
Max El.
End time (UTC)
End Az.
422 mins2024-12-27 03:10:15.172Z228.215° WSW2024-12-27 05:16:15.172Z237.177° WSW26.959°2024-12-27 10:12:15.172Z276.436° WNW
22 mins2024-12-27 13:03:15.172Z269.539° W2024-12-27 13:19:15.172Z248.464° W12.636°2024-12-27 13:25:15.172Z229.586° WSW
|